Weather in Balmaceda

Chile     45°54′21″S   71°41′47″W
temp.,
°C
wind,
m/s
gust,
m/s
humid.,
%
clouds,
%
prec.,
mm/h
press.,
hPa
HPBL,
m
12 may, wed
wed1223:00+2wnw4783100 0.0 1006132
02:00+4wnw6139099 0.3 1005347
05:00+3w68917 0.1 1008118
08:00+2w569317 0.1 101086
11:00+6wnw59692 0.0 1009463
14:00+9wnw510510 0.0 1009944
17:00+6wnw34762 0.0 101075
20:00+3w33861 0.0 101340
13 may, thu
thu1323:00+2w33873 0.0 101527
02:00+1w32894 0.0 101625
05:00+1w33855 0.0 101624
08:00+1w33790 0.0 101621
11:00+5nw22620 0.0 1017249
14:00+7nnw22600 0.0 1016430
17:00+5n11790 0.0 101710
20:00+2wnw11860 0.0 101810
14 may, fri
fri1423:00+1n01900 0.0 101910
02:00+1nnw1191100 0.0 101811
05:00+1ese1186100 0.0 101710
08:000n018576 0.0 101613
11:00+4ne116156 0.0 1015159
14:00+5e1160100 0.1 1012145
17:00+3nw4591100 0.6 1014231
20:00+1wnw359568 0.6 1016228
15 may, sat
sat1523:00+1nw3496100 0.3 1017296
02:00+1nw3499100 0.5 1017190
05:00+2wnw3497100 0.3 1018266
08:00+2nw239756 0.3 1019123
11:00+4nw2386100 0.0 1020294
14:00+6wnw3476100 0.0 1019553
17:00+5w2279100 0.0 101915
20:00+3nnw0187100 0.0 102110
16 may, sun
sun1623:00+1e009319 0.0 102210
02:00+1ese019452 0.0 102210
05:00+1wnw119412 0.0 102310
08:000nnw01965 0.0 102310
11:00+3n11836 0.0 1023218
14:00+5n117398 0.0 1022352
17:00+3nne117982 0.0 102113
20:00+1ese118474 0.0 102112